Terminal Aerodrome Forecast
Issued by NWS Wilmington, OH

Current Version | Previous Version | Graphics & Text | Print | Product List | Glossary On
Versions: 1 2 3 4 5 6 7 8 9 10 11 12 13 14 15 16 17 18 19 20
000
FTUS41 KILN 201500 AAE
TAFCMH
TAF AMD
KCMH 201502Z 2015/2112 13005KT P6SM VCSH FEW015 BKN025
     FM210100 VRB03KT 4SM BR BKN025=

USA.gov is the U.S. government's official web portal to all federal, state and local government web resources and services.